Location: McCall
(45.0000°N, 116.0000°W)
Time: 19:29:23
(UTC-06:00)

Saudisat 1A - Visible Passes

Search period start: 31 July 2015 00:00
Search period end: 10 August 2015 00:00
Orbit: 574 x 623 km, 64.6° (Epoch: 31 July)

Date Brightness Start Highest point End Pass type
(mag) Time Alt. Az. Time Alt. Az. Time Alt. Az.
31 Jul 10.6 02:55:37 10° ESE 02:55:37 10° ESE 02:55:55 10° ESE visible
31 Jul 8.0 04:32:19 33° SSW 04:34:16 86° SE 04:38:44 10° NE visible
01 Aug 10.0 03:06:16 19° ESE 03:06:16 19° ESE 03:09:10 10° ENE visible
01 Aug 8.4 04:42:59 27° WSW 04:45:09 55° NW 04:49:34 10° NNE visible
02 Aug 9.1 03:16:53 32° ESE 03:16:53 32° ESE 03:20:40 10° NE visible
02 Aug 9.1 04:53:35 19° W 04:56:10 34° NW 05:00:15 10° NNE visible
03 Aug 8.2 03:27:27 59° ESE 03:27:27 59° ESE 03:31:47 10° NE visible
03 Aug 9.8 05:04:09 12° W 05:07:17 23° NW 05:10:48 10° NNE visible
04 Aug 10.7 02:01:17 10° E 02:01:17 10° E 02:01:17 10° E visible
04 Aug 7.9 03:37:59 76° W 03:38:13 80° NW 03:42:42 10° NE visible
04 Aug 10.3 05:15:42 10° WNW 05:18:30 16° NNW 05:21:13 10° N visible
05 Aug 10.2 02:11:47 17° E 02:11:47 17° E 02:13:24 10° ENE visible
05 Aug 8.6 03:48:29 43° WNW 03:49:09 47° NW 03:53:28 10° NNE visible
05 Aug 10.6 05:28:12 10° NW 05:29:48 11° NNW 05:31:17 10° N visible
06 Aug 9.6 02:22:14 28° ENE 02:22:14 28° ENE 02:24:44 10° NE visible
06 Aug 9.4 03:58:56 25° WNW 04:00:11 29° NW 04:04:06 10° NNE visible
07 Aug 9.0 02:32:40 43° NE 02:32:40 43° NE 02:35:46 10° NE visible
07 Aug 10.0 04:09:22 16° WNW 04:11:19 20° NW 04:14:38 10° N visible
08 Aug 8.7 02:43:03 52° N 02:43:03 52° N 02:46:37 10° NNE visible
08 Aug 10.5 04:20:06 10° WNW 04:22:34 14° NNW 04:24:58 10° N visible
09 Aug 10.5 01:16:43 14° ENE 01:16:43 14° ENE 01:17:32 10° ENE visible
09 Aug 9.1 02:53:24 39° NW 02:53:24 39° NW 02:57:20 10° NNE visible
09 Aug 10.8 04:33:01 10° NW 04:33:54 10° NNW 04:34:40 10° NNW visible
